User: anonymous   Login
Location: D�derode
(51.8092°N, 10.1065°E)
Time: 19:04:51
(UTC+00:00)
Language:

MOS 1-B - Orbit

View from above orbital plane
View from above orbital plane
View from above satellite
View from above satellite

Ground track
Ground track

The orbit data is extracted from the following two-line orbital elements,

1 20478U 90013A   21060.00123193  .00000039  00000-0  63104-4 0  9992
2 20478  99.4304  67.6741 0006029  42.8112 317.3518 13.95522573502218
Epoch (UTC): 01 March 2021 00:01:46
Eccentricity: 0.0006029
inclination: 99.4304°
perigee height: 905 km
apogee height: 914 km
right ascension of ascending node: 67.6741°
argument of perigee: 42.8112°
revolutions per day: 13.95522573
mean anomaly at epoch: 317.3518°
orbit number at epoch: 50221

The dashed part of the orbit path shows where the satellite is in the earth's shadow,  

DLR